{"data":{"norad_id":65736,"epoch":"2026-09-20T23:20:34.516608Z","epoch_age_seconds":67900,"freshness":"FRESH","line1":"1 65736U 25216C   26263.97262172  .00020908  00000+0  62786-3 0  9998","line2":"2 65736  53.1609 143.5992 0002126  81.9184 278.2060 15.34416893 56479","mean_motion":15.34416893,"eccentricity":0.0002126,"inclination_deg":53.1609,"raan_deg":143.5992,"arg_perigee_deg":81.9184,"mean_anomaly_deg":278.206,"bstar":0.00062786,"rev_number":5647,"period_min":93.846724874398,"perigee_km":461.1986791511,"apogee_km":464.10738307233,"semimajor_km":6840.7900311117,"source":"CELESTRAK","updated_at":"2026-09-21T09:00:35.691631Z"}}